United States

Cheney, KS Weather Archive

Below you will find the last 24 hours of weather readings for Cheney KS

Cheney KS Today's Weather Data

Observed at: Cheney, KS

Hour Observerd Temp Pressure Visibility Humidity Dew Point Wind
13:00 Overcast and Windy 37°F (2.8°C) 98.21 kPa 10 miles 56% 22.8°F (-5.1°C) 21.6 mph NNW 339°
12:00 Overcast and Windy 36°F (2.2°C) 98.21 kPa 10 miles 56% 21.8°F (-5.6°C) 12.7 mph NW 313°14 mph
11:00 Overcast and Breezy 36°F (2.2°C) 98.21 kPa 10 miles 56% 21.8°F (-5.6°C) 13.9 mph WNW 297°14 mph
10:00 Overcast and Breezy 35°F (1.7°C) 98.21 kPa 10 miles 57% 21.3°F (-5.9°C) 4.1 mph N 355°12 mph
09:00 Overcast and Breezy 34°F (1.1°C) 98.21 kPa 10 miles 63% 22.7°F (-5.1°C) 10.9 mph WNW 301°12 mph
08:00 Overcast and Breezy 36°F (2.2°C) 98.21 kPa 10 miles 53% 20.6°F (-6.4°C) 6.8 mph NW 306°15 mph
07:00 Overcast and Breezy 35°F (1.7°C) 98.21 kPa 10 miles 48% 17.3°F (-8.2°C) 13.5 mph NNW 348°
06:00 Overcast and Breezy 35°F (1.7°C) 98.21 kPa 10 miles 47% 16.8°F (-8.4°C) 9.9 mph WNW 299°
05:00 Mostly Cloudy and Breezy 36°F (2.2°C) 98.21 kPa 10 miles 51% 19.7°F (-6.9°C) 14 mph NW 315°
04:00 Mostly Cloudy and Breezy 37°F (2.8°C) 98.21 kPa 10 miles 49% 19.6°F (-6.9°C) 15.7 mph WNW 294°
03:00 A Few Clouds and Breezy 36°F (2.2°C) 98.21 kPa 10 miles 52% 20.1°F (-6.6°C) 3.8 mph NNW 336°7 mph
02:00 A Few Clouds and Breezy 36°F (2.2°C) 98.21 kPa 10 miles 54% 21°F (-6.1°C) 11.6 mph NNW 345°
01:00 A Few Clouds and Breezy 35°F (1.7°C) 98.21 kPa 10 miles 55% 20.5°F (-6.4°C) 8.7 mph WNW 297°
00:00 A Few Clouds and Breezy 36°F (2.2°C) 98.21 kPa 10 miles 53% 20.6°F (-6.4°C) 11.7 mph NW 308°
23:00 A Few Clouds 37°F (2.8°C) 98.21 kPa 10 miles 53% 21.5°F (-5.8°C) 11.4 mph NNW 343°
22:00 A Few Clouds and Breezy 38°F (3.3°C) 98.21 kPa 10 miles 49% 20.6°F (-6.4°C) 11.5 mph NNW 342°
21:00 A Few Clouds and Breezy 39°F (3.9°C) 98.21 kPa 10 miles 50% 22°F (-5.6°C) 9.5 mph N 353°
20:00 Partly Cloudy 43°F (6.1°C) 98.21 kPa 10 miles 45% 23.1°F (-4.9°C) 11.5 mph WNW 285°
19:00 Partly Cloudy 42°F (5.6°C) 98.21 kPa 10 miles 32% 14.3°F (-9.8°C) 7.4 mph NW 316°
18:00 A Few Clouds and Breezy 46°F (7.8°C) 98.21 kPa 10 miles 26% 13.1°F (-10.5°C) 15.1 mph N 350°
17:00 A Few Clouds and Breezy 50°F (10°C) 98.21 kPa 10 miles 21% 11.6°F (-11.3°C) 15.1 mph N 7°
16:00 A Few Clouds and Windy 51°F (10.6°C) 98.21 kPa 10 miles 23% 14.5°F (-9.7°C) 9.7 mph NNW 332°10 mph
15:00 A Few Clouds and Windy 52°F (11.1°C) 98.21 kPa 10 miles 29% 20.7°F (-6.3°C) 15.3 mph WNW 297°
14:00 Partly Cloudy and Windy 50°F (10°C) 98.21 kPa 10 miles 35% 23.4°F (-4.8°C) 11.7 mph WNW 295°


Home | Earthquakes | About Us | Contact Us | Privacy

Copyright Friendly Forecast 2012 - 2021